Grand Prairie, TX

12:22 AM CDT on October 21, 2017 (GMT -0500)
Grand Prairie Municipal

Weather History for KGPM - September, 2013

Change the Weather History Date:

Tuesday, September 3, 2013

  Actual Average (KRBD) Record (KRBD)
Temperature  
Mean Temperature 84 °F -  
Max Temperature 96 °F 89 °F 108 °F (2000)
Min Temperature 73 °F 69 °F 64 °F (2004)
Cooling Degree Days 20    
Growing Degree Days 34 (Base 50)    
Moisture  
Dew Point 63 °F    
Average Humidity 52    
Maximum Humidity 70    
Minimum Humidity 30    
Precipitation  
Precipitation 0.00 in - - ()
Sea Level Pressure  
Sea Level Pressure 29.97 in    
Wind  
Wind Speed 4 mph (North)    
Max Wind Speed 9 mph    
Max Gust Speed 20 mph    
Visibility 10 miles    
Events      
Averages and records for this station are not official NWS values.
T = Trace of Precipitation, MM = Missing Value Source: NWS Daily Summary

Daily Weather History Graph

Daily Weather History Graph

Search for Another Location

Airport or City:

Trip Planner

Search our weather history database for the weather conditions in past years. The results will help you decide how hot, cold, wet, or windy it might be!

Date:

Astronomy

Sep. 03, 2013 Rise Set
Actual Time 7:04 AM CDT 7:49 PM CDT
Civil Twilight 6:39 AM CDT 8:14 PM CDT
Nautical Twilight 6:09 AM CDT 8:44 PM CDT
Astronomical Twilight 5:39 AM CDT 9:14 PM CDT
Moon 5:22 AM CDT (9/3) 6:36 PM CDT (9/3)
Length of Visible Light 13h 35m
Length of Day
12h 45m
Waning Crescent, 3% of the Moon is Illuminated
Sep 3
Waning Crescent
Sep 5
New
Sep 12
First Quarter
Sep 19
Full
Sep 26
Last Quarter

Hourly Weather History & Observations

Time (CDT) Temp. Heat Index Dew Point Humidity Pressure Visibility Wind Dir Wind Speed Gust Speed Precip Events Conditions
12:15 AM 82.4 °F 85.4 °F 68.0 °F 62% 29.95 in 10.0 mi Calm Calm - N/A   Clear
12:35 AM 82.4 °F 85.4 °F 68.0 °F 62% 29.95 in 10.0 mi Calm Calm - N/A   Scattered Clouds
12:55 AM 80.6 °F 83.2 °F 68.0 °F 65% 29.96 in 10.0 mi Calm Calm - N/A   Mostly Cloudy
1:15 AM 80.6 °F 83.9 °F 69.8 °F 70% 29.97 in 10.0 mi North 4.6 mph - N/A   Mostly Cloudy
1:35 AM 82.4 °F 85.4 °F 68.0 °F 62% 29.97 in 10.0 mi Calm Calm - N/A   Mostly Cloudy
1:55 AM 82.4 °F 86.3 °F 69.8 °F 66% 29.97 in 10.0 mi Calm Calm - N/A   Mostly Cloudy
2:15 AM 82.4 °F 86.3 °F 69.8 °F 66% 29.97 in 10.0 mi North 4.6 mph - N/A   Mostly Cloudy
2:35 AM 80.6 °F 83.9 °F 69.8 °F 70% 29.97 in 10.0 mi North 6.9 mph - N/A   Scattered Clouds
2:55 AM 80.6 °F 83.9 °F 69.8 °F 70% 29.97 in 10.0 mi North 6.9 mph - N/A   Clear
3:15 AM 80.6 °F 82.7 °F 66.2 °F 61% 29.97 in 10.0 mi North 9.2 mph - N/A   Scattered Clouds
3:35 AM 78.8 °F - 66.2 °F 65% 29.97 in 10.0 mi NE 4.6 mph - N/A   Clear
3:55 AM 78.8 °F - 64.4 °F 61% 29.97 in 10.0 mi NNE 3.5 mph - N/A   Clear
4:15 AM 78.8 °F - 64.4 °F 61% 29.97 in 10.0 mi North 8.1 mph - N/A   Clear
4:35 AM 78.8 °F - 64.4 °F 61% 29.97 in 10.0 mi NNE 6.9 mph - N/A   Clear
4:55 AM 77.0 °F - 62.6 °F 61% 29.97 in 10.0 mi NNE 5.8 mph - N/A   Clear
5:15 AM 77.0 °F - 62.6 °F 61% 29.98 in 10.0 mi NNE 4.6 mph - N/A   Clear
5:35 AM 77.0 °F - 62.6 °F 61% 29.99 in 10.0 mi North 4.6 mph - N/A   Clear
5:55 AM 77.0 °F - 62.6 °F 61% 29.98 in 10.0 mi North 5.8 mph - N/A   Clear
6:15 AM 77.0 °F - 62.6 °F 61% 29.99 in 10.0 mi North 5.8 mph - N/A   Clear
6:35 AM 73.4 °F - 62.6 °F 69% 29.99 in 10.0 mi North 6.9 mph - N/A   Clear
6:50 AM 77.0 °F - 62.6 °F 61% 29.99 in 10.0 mi North 8.1 mph - N/A   Clear
6:55 AM 77.0 °F - 62.6 °F 61% 29.99 in 10.0 mi North 8.1 mph - N/A   Clear
7:50 AM 77.0 °F - 62.6 °F 61% 30.01 in 10.0 mi North 5.8 mph - N/A   Clear
8:50 AM 80.6 °F 81.8 °F 62.6 °F 54% 30.02 in 10.0 mi North 5.8 mph - N/A   Clear
9:50 AM 82.4 °F 83.4 °F 62.6 °F 51% 30.02 in 10.0 mi North 9.2 mph - N/A   Clear
10:50 AM 86.0 °F 86.6 °F 62.6 °F 45% 30.03 in 10.0 mi NNE 9.2 mph - N/A   Clear
11:50 AM 89.6 °F 90.1 °F 62.6 °F 40% 30.03 in 10.0 mi NNW 6.9 mph - N/A   Clear
12:50 PM 91.4 °F 93.2 °F 64.4 °F 41% 30.01 in 10.0 mi NNW 6.9 mph - N/A   Clear
1:51 PM 93.2 °F 94.9 °F 64.4 °F 38% 29.99 in 10.0 mi North 6.9 mph - N/A   Clear
2:57 PM 93.2 °F 94.1 °F 62.6 °F 36% 29.97 in 10.0 mi Calm Calm - N/A   Clear
3:58 PM 95.0 °F 95.2 °F 60.8 °F 32% 29.93 in 10.0 mi ENE 5.8 mph - N/A   Clear
4:58 PM 96.8 °F 97.1 °F 60.8 °F 30% 29.92 in 10.0 mi North 4.6 mph - N/A   Clear
5:54 PM 95.0 °F 94.4 °F 59.0 °F 30% 29.91 in 10.0 mi North 5.8 mph 19.6 mph N/A   Clear
9:15 PM 86.0 °F 84.9 °F 57.2 °F 37% 29.94 in 10.0 mi Calm Calm - N/A   Clear
9:35 PM 86.0 °F 84.9 °F 57.2 °F 37% 29.95 in 10.0 mi Calm Calm - N/A   Clear
9:55 PM 87.8 °F 86.1 °F 55.4 °F 33% 29.96 in 10.0 mi Calm Calm - N/A   Clear
10:15 PM 86.0 °F 84.5 °F 55.4 °F 35% 29.96 in 10.0 mi Calm Calm - N/A   Clear
10:35 PM 82.4 °F 82.5 °F 59.0 °F 45% 29.96 in 10.0 mi Calm Calm - N/A   Clear
10:55 PM 82.4 °F 82.0 °F 57.2 °F 42% 29.97 in 10.0 mi North 5.8 mph - N/A   Clear
11:15 PM 86.0 °F 84.2 °F 53.6 °F 33% 29.97 in 10.0 mi North 4.6 mph - N/A   Clear
11:35 PM 82.4 °F 81.7 °F 55.4 °F 39% 29.97 in 10.0 mi NNE 4.6 mph - N/A   Clear
11:55 PM 82.4 °F 81.7 °F 55.4 °F 39% 29.98 in 10.0 mi NNE 4.6 mph - N/A   Clear